Kahului, HI

2:12 AM HST on May 27, 2018 (GMT -1000)
Kahului

Weather History for PHOG - July, 2013

Change the Weather History Date:

Thursday, July 11, 2013

  Actual Average Record
Temperature  
Mean Temperature 80 °F 79 °F  
Max Temperature 88 °F 87 °F 94 °F (1951)
Min Temperature 71 °F 71 °F 60 °F (1974)
Degree Days  
Heating Degree Days 0 0  
Month to date heating degree days 0 0  
Since 1 June heating degree days 0 0  
Since 1 July heating degree days 0 0  
Cooling Degree Days 15 14  
Month to date cooling degree days 157 154  
Year to date cooling degree days 1983 1801  
Since 1 June cooling degree days 599 542  
Growing Degree Days 30 (Base 50)    
Moisture  
Dew Point 70 °F    
Average Humidity 74    
Maximum Humidity 93    
Minimum Humidity 55    
Precipitation  
Precipitation 0.01 in 0.01 in 0.14 in (1991)
Month to date precipitation 0.03 0.14  
Year to date precipitation 7.29 9.84  
Snow  
Snow 0.00 in - - ()
Month to date snowfall 0.0  
Since 1 June snowfall 0.0  
Since 1 July snowfall 0.0  
Snow Depth 0.00 in    
Sea Level Pressure  
Sea Level Pressure 30.09 in    
Wind  
Wind Speed 18 mph (NE)    
Max Wind Speed 30 mph    
Max Gust Speed 44 mph    
Visibility 10 miles    
Events Rain    
T = Trace of Precipitation, MM = Missing Value Source: NWS Daily Summary

Daily Weather History Graph

Daily Weather History Graph

Search for Another Location

Airport or City:

Astronomy

Jul. 11, 2013 Rise Set
Actual Time 5:51 AM HST 7:10 PM HST
Civil Twilight 5:27 AM HST 7:35 PM HST
Nautical Twilight 4:58 AM HST 8:04 PM HST
Astronomical Twilight 4:28 AM HST 8:34 PM HST
Moon 8:50 AM HST (7/11) 9:31 PM HST (7/11)
Length of Visible Light 14h 07m
Length of Day
13h 18m
Waxing Crescent, 12% of the Moon is Illuminated
Jul 11
Waxing Crescent
Jul 15
First Quarter
Jul 22
Full
Jul 29
Last Quarter
Aug 6
New

Hourly Weather History & Observations

Time (HST) Temp. Heat Index Dew Point Humidity Pressure Visibility Wind Dir Wind Speed Gust Speed Precip Events Conditions
12:54 AM 75.0 °F - 71.1 °F 87% 30.13 in 10.0 mi NE 15.0 mph - 0.00 in Rain Light Rain
1:54 AM 73.9 °F - 71.1 °F 91% 30.12 in 10.0 mi NNE 13.8 mph - 0.00 in   Mostly Cloudy
2:54 AM 71.1 °F - 69.1 °F 93% 30.10 in 10.0 mi ENE 20.7 mph 29.9 mph 0.01 in   Clear
3:54 AM 73.0 °F - 70.0 °F 90% 30.09 in 10.0 mi NE 18.4 mph 25.3 mph 0.00 in   Clear
4:54 AM 72.0 °F - 70.0 °F 93% 30.09 in 10.0 mi NE 13.8 mph - 0.00 in   Clear
5:54 AM 73.9 °F - 71.1 °F 91% 30.09 in 10.0 mi NE 13.8 mph - N/A   Scattered Clouds
6:54 AM 75.0 °F - 70.0 °F 84% 30.11 in 10.0 mi ENE 13.8 mph 21.9 mph 0.00 in   Clear
7:54 AM 78.1 °F - 70.0 °F 76% 30.11 in 10.0 mi NE 20.7 mph 28.8 mph 0.00 in Rain Light Rain
8:54 AM 81.0 °F 84.4 °F 70.0 °F 69% 30.11 in 10.0 mi NE 19.6 mph 27.6 mph 0.00 in   Scattered Clouds
9:54 AM 84.0 °F 87.8 °F 69.1 °F 61% 30.11 in 10.0 mi ENE 17.3 mph 28.8 mph N/A   Scattered Clouds
10:54 AM 84.9 °F 88.8 °F 69.1 °F 59% 30.10 in 10.0 mi ENE 21.9 mph 27.6 mph 0.00 in   Partly Cloudy
11:54 AM 87.1 °F 92.0 °F 70.0 °F 57% 30.09 in 10.0 mi East 23.0 mph 31.1 mph N/A   Scattered Clouds
12:54 PM 87.1 °F 92.0 °F 70.0 °F 57% 30.09 in 10.0 mi NE 23.0 mph 35.7 mph N/A   Scattered Clouds
1:54 PM 87.1 °F 92.0 °F 70.0 °F 57% 30.07 in 10.0 mi ENE 20.7 mph 35.7 mph N/A   Partly Cloudy
2:54 PM 86.0 °F 90.7 °F 70.0 °F 59% 30.05 in 10.0 mi ENE 25.3 mph 34.5 mph N/A   Partly Cloudy
3:54 PM 84.9 °F 88.8 °F 69.1 °F 59% 30.02 in 10.0 mi ENE 23.0 mph 38.0 mph N/A   Partly Cloudy
4:54 PM 82.9 °F 87.0 °F 70.0 °F 65% 30.02 in 10.0 mi ENE 24.2 mph 39.1 mph N/A   Partly Cloudy
5:54 PM 81.0 °F 84.1 °F 69.1 °F 67% 30.03 in 10.0 mi NE 26.5 mph 33.4 mph N/A   Scattered Clouds
6:54 PM 78.1 °F - 72.0 °F 81% 30.06 in 10.0 mi NE 21.9 mph - N/A   Clear
7:54 PM 77.0 °F - 70.0 °F 79% 30.08 in 10.0 mi NE 17.3 mph 23.0 mph N/A   Scattered Clouds
8:54 PM 75.9 °F - 71.1 °F 85% 30.08 in 10.0 mi NE 16.1 mph 21.9 mph N/A   Scattered Clouds
9:54 PM 75.9 °F - 70.0 °F 82% 30.09 in 10.0 mi NE 17.3 mph 24.2 mph N/A   Scattered Clouds
10:54 PM 75.0 °F - 69.1 °F 82% 30.10 in 10.0 mi NE 13.8 mph - 0.00 in   Clear
11:54 PM 73.9 °F - 68.0 °F 82% 30.09 in 10.0 mi Calm Calm - N/A   Clear